Flag for U.S.A. Weather past 2 weeks in Livonia, Michigan, U.S.A.

Now
70 °F

Light rain. Overcast.


Feels Like: 69 °F
Forecast: 66 / 82 °F
Wind: No wind

Location: Detroit Metropolitan Wayne County Airport

Current Time: Aug 29, 2015 at 11:42:03 PM

Latest Report: Aug 29, 2015 at 10:53 PM


Visibility: 8 mi

Pressure: 30.07 "Hg

Humidity: 84%

Dew point: 65 °F

Location of LivoniaLocation

Historic Weather in Livonia — Graph

°F

Livonia temperature yesterday

Maximum temperature yesterday: 74 °F (at 1:53 PM)
Minimum temperature yesterday: 54 °F (at 3:53 AM)
Average temperature yesterday: 65 °F

Past Weeks' High & Low Weather Summary

 TemperatureHumidityPressure
High89 °F (Aug 17, 1:53 PM)94% (Aug 20, 3:00 AM)30.22 "Hg (Aug 20, 3:00 AM)
Low54 °F (Aug 27, 6:53 AM)36% (Aug 21, 1:53 PM)29.68 "Hg (Aug 20, 1:53 AM)
Average70 °F70%30.02 "Hg
* Reported Aug 14 9:53 PM — Aug 29 9:53 PM, Livonia, Weather by CustomWeather, © 2015

Note: Actual official high and low records may vary slightly from our data, if they occured in-between our weather recording intervals... More about our weather records

Advertising

Livonia weather history for previous 24 hours

 ConditionsComfort  
Time TempWeatherWind HumidityBarometerVisibility
9:53 PM
Sat, Aug 29
73 °FOvercast.No wind71%30.07 "Hg9 mi
8:53 PM73 °FCloudy.No wind69%30.05 "Hg9 mi
7:53 PM75 °FLight rain. Cloudy.No wind62%30.04 "Hg8 mi
6:53 PM75 °FCloudy.No wind64%30.04 "Hg10 mi
5:53 PM75 °FCloudy.3 mph60%30.06 "Hg10 mi
4:53 PM74 °FMostly cloudy.5 mph62%30.06 "Hg10 mi
3:53 PM74 °FOvercast.5 mph60%30.07 "Hg10 mi
2:53 PM76 °FMostly cloudy.8 mph60%30.09 "Hg10 mi
1:53 PM76 °FMostly cloudy.5 mph58%30.09 "Hg10 mi
12:53 PM77 °FBroken clouds.7 mph56%30.10 "Hg10 mi
11:53 AM77 °FBroken clouds.6 mph54%30.12 "Hg10 mi
10:53 AM74 °FPartly sunny.5 mph64%30.13 "Hg10 mi
9:53 AM69 °FPartly sunny.3 mph79%30.14 "Hg7 mi
8:53 AM67 °FFog.No wind87%30.14 "Hg6 mi
7:53 AM65 °FOvercast.No wind91%30.15 "Hg8 mi
6:53 AM65 °FOvercast.No wind91%30.13 "Hg8 mi
5:53 AM65 °FOvercast.No wind91%30.12 "Hg8 mi
4:53 AM64 °FMostly cloudy.No wind94%30.12 "Hg10 mi
2:53 AM66 °FMostly cloudy.5 mph90%30.14 "Hg10 mi
1:53 AM65 °FMostly cloudy.No wind91%30.15 "Hg10 mi
12:53 AM66 °FPartly cloudy.3 mph87%30.15 "Hg10 mi
11:53 PM
Fri, Aug 28
66 °FPartly cloudy.No wind84%30.14 "Hg10 mi
Weather by CustomWeather, © 2015

See weather overviewHow to use our weather pages